sat.trackr.live / text

‹ back to catalog

ORIGAMISAT-2

NORAD 68795 · 2026-088D

PAYLOAD ACTIVE UNKNOWN

§ Identity

Operator
Country
JPN
Launch date
2026-04-23
Launch site
RLLB
Launch vehicle
Mass (kg)
RCS (m²)

External: N2YO · Heavens-Above · Gunter

§ Orbital elements

Epoch: 2026-09-20T03:24:33.666048Z

Period
95.32 min
Inclination
97.5190°
Eccentricity
0.0015697
Mean motion
15.10631775 rev/d
Perigee alt
523.4 km
Apogee alt
545.1 km
Semi-major
6,912.4 km
B*
5.0333e-4
RAAN
50.6328°
Arg perigee
111.6885°
Mean anomaly
248.6018°
Rev number
2,262

§ Raw data

ORIGAMISAT-21 68795U 26088D   26263.14205632  .00008285  00000+0  50333-3 0  99902 68795  97.5190  50.6328 0015697 111.6885 248.6018 15.10631775 22627

JSON: /api/v1/satellites/68795 · /tle

For live sub-satellite position, see the globe view (requires WebGL).

§ Visibility from observer

Set your observer location to see the next 7 days of passes ≥ 10°. The values pass through the URL so the page stays shareable.

No JS? Fill the form by hand. The geolocation button needs JavaScript.

§ Radio — SatNOGS DB

ModeDescriptionDownlinkUplink
CW C-Band(CW) 5.840 GHz
QPSK C-Band(High Speed Data) 5.840 GHz
BPSK C-Band(High Speed Data) 5.840 GHz
AFSK Mode U - AFSK1k2 TLM 437.505 MHz
CW Mode U - CW 437.505 MHz

5 transmitters · refreshed weekly from db.satnogs.org